Theta_e
305 305 304 305 305 305 306 306 306 306 307 308 307 307 309 312 306 302 314 317 312 314 315 320 323 324 325 326 326 328 329 329 329 329 328 328 329 331 331 332 334 335 336 337 339 340 341 343 344 346 347 349 349 351 352 354 356 359 361 358 356 355 353 353 355 353 357 361 360 359 359 361 363 360 358 358 363 359 358 357 356 357 354 351 354 355 358
304 305 305 305 304 305 305 306 306 307 307 307 308 309 309 311 314 314 313 315 315 317 318 321 324 326 326 326 328 328 327 327 328 327 327 326 327 328 329 330 332 333 334 335 337 338 339 340 341 343 345 346 349 348 348 348 347 354 356 360 358 357 354 354 353 353 354 354 354 361 361 363 366 368 363 362 364 366 364 363 363 359 357 357 354 352 354
303 304 306 306 305 303 303 306 308 307 307 308 309 310 312 313 311 313 314 316 311 316 322 324 327 327 328 326 325 325 325 326 327 326 325 326 326 328 329 330 331 332 334 336 337 338 338 338 339 340 342 345 348 348 347 345 344 346 354 354 357 357 355 355 355 356 355 352 351 353 365 365 366 367 363 361 366 369 369 366 362 361 360 356 355 353 351
301 304 304 305 305 305 304 304 305 306 306 304 307 308 313 311 311 313 314 308 312 318 323 324 325 325 324 323 323 324 325 325 325 324 325 324 325 326 329 330 330 331 332 333 334 335 336 338 339 339 340 344 346 349 350 350 350 355 354 354 354 356 356 354 352 354 354 351 352 352 354 360 364 365 364 365 365 366 363 360 362 359 359 358 360 358 354
299 305 304 303 303 303 300 301 305 306 307 308 310 312 312 313 311 308 307 307 316 320 322 319 322 323 323 323 323 323 324 325 324 324 325 323 323 324 327 329 329 330 331 332 333 334 335 336 337 339 342 342 344 347 348 350 348 350 352 354 353 352 353 352 352 353 351 348 347 347 351 355 364 360 364 365 364 364 362 362 360 363 362 360 360 358 355
300 304 304 304 300 294 297 310 312 310 308 310 308 309 312 315 314 314 314 315 319 322 321 318 321 323 322 323 325 327 325 324 324 325 325 325 325 325 327 330 330 332 332 333 334 335 336 337 338 340 342 342 343 345 346 347 347 347 348 349 350 350 350 348 348 350 350 349 346 347 349 349 354 360 365 363 365 364 363 364 361 360 360 360 361 360 359
298 303 303 298 292 295 308 315 316 313 311 312 312 313 314 316 316 316 315 317 318 322 324 324 323 325 326 327 325 326 328 328 326 326 325 327 326 326 327 328 330 331 332 333 334 334 335 337 338 341 341 342 343 344 345 344 345 345 345 345 343 344 344 347 349 350 349 347 346 347 349 351 350 351 356 362 362 362 362 362 361 360 359 358 357 357 355
303 300 299 291 294 308 309 312 312 316 313 312 311 310 314 316 316 318 318 320 322 322 321 322 323 324 326 326 327 327 327 328 327 326 328 327 327 326 327 326 330 333 330 331 332 333 336 337 338 341 341 342 342 341 343 342 342 342 342 341 340 341 340 341 343 348 350 349 346 344 347 349 353 351 352 359 359 363 359 358 356 355 354 355 354 354 355
297 299 299 298 305 303 306 307 309 311 308 310 309 304 310 318 319 320 317 319 322 321 323 324 325 326 325 322 323 327 327 327 327 328 328 328 326 324 323 324 326 330 332 331 332 333 335 337 337 337 340 341 341 341 340 340 340 340 340 338 338 338 339 340 341 342 346 347 347 346 346 346 347 350 354 354 359 364 358 355 354 352 351 351 354 356 358
303 298 297 298 297 294 303 314 317 316 315 317 319 313 309 316 318 318 319 317 322 320 322 323 325 326 319 315 319 326 327 327 325 327 327 326 327 324 323 325 327 330 331 331 332 331 331 334 336 337 338 338 339 338 338 339 338 337 336 336 336 337 337 338 339 339 340 339 339 340 339 339 342 345 349 350 348 357 355 353 352 352 352 352 353 355 354
302 300 296 296 294 298 310 313 313 316 317 315 315 309 304 314 320 320 319 318 318 321 321 322 322 317 312 313 320 325 326 326 326 324 326 324 323 321 321 322 324 326 328 331 332 332 330 330 333 335 336 336 335 334 335 335 335 334 334 335 335 335 336 337 337 339 339 339 338 338 337 337 338 340 342 346 349 351 354 354 352 352 351 351 352 353 351
301 300 297 295 301 300 309 312 312 316 317 317 313 299 301 315 317 321 321 320 320 322 325 322 319 316 310 314 319 326 325 326 327 326 323 323 322 322 321 321 324 326 328 329 329 328 328 329 330 331 331 330 331 330 330 331 331 330 331 333 335 336 335 335 337 338 338 337 337 337 337 338 340 340 341 342 344 344 345 345 346 346 348 349 350 348 349
299 299 298 300 302 311 313 310 314 317 318 314 303 297 308 317 320 321 324 324 323 323 325 324 317 319 322 324 326 327 327 327 326 324 323 322 322 321 320 320 323 321 323 325 326 328 329 330 330 331 331 330 328 328 328 328 328 329 331 333 333 334 333 333 334 337 338 337 335 336 337 339 340 341 344 344 344 345 342 342 343 344 344 343 342 341 343
298 300 297 298 302 313 314 314 314 318 311 300 298 314 325 322 321 321 324 322 323 322 322 322 322 323 326 325 327 327 327 326 325 324 320 318 318 320 322 322 320 319 320 322 324 327 329 329 329 330 331 331 330 329 328 327 329 330 330 331 331 331 331 333 335 337 337 338 337 336 337 339 339 340 343 344 344 344 344 344 343 342 341 336 333 332 333
302 302 299 295 291 310 316 315 313 317 305 309 315 321 322 321 323 322 325 323 324 324 323 323 326 325 325 326 326 326 327 325 324 325 325 324 322 320 320 319 319 318 318 318 319 322 325 328 329 329 331 331 331 331 329 330 331 332 331 331 330 328 329 331 334 337 337 336 335 336 335 337 338 338 339 339 340 341 341 341 339 337 336 334 332 330 329
299 297 296 295 308 312 318 314 307 314 317 321 323 322 320 323 323 323 323 326 325 324 326 325 324 324 325 326 327 327 326 323 321 322 323 324 324 324 323 321 319 318 318 317 317 320 322 327 328 330 331 330 330 329 329 333 332 332 332 331 332 330 329 328 329 331 334 336 336 336 338 337 337 336 336 337 338 339 338 337 335 333 333 332 331 329 326
303 303 307 313 317 318 319 318 317 322 324 324 323 324 325 322 322 325 324 326 327 331 330 328 327 325 325 325 326 324 323 319 319 320 321 321 322 323 323 323 324 322 320 319 319 318 319 323 326 328 330 331 330 329 330 333 332 332 331 330 329 328 327 326 326 326 329 332 335 336 336 336 335 335 334 334 334 337 336 333 332 331 330 329 327 326 325
313 314 316 316 316 317 318 321 324 323 323 323 323 323 322 323 325 323 324 324 325 328 330 327 327 327 327 326 325 325 322 321 321 321 320 320 321 322 322 323 324 324 324 323 322 319 319 320 323 326 327 329 329 331 332 332 334 333 331 330 330 329 327 325 325 325 324 325 328 331 334 334 335 334 334 333 333 334 333 332 333 332 330 330 328 327 327
306 300 315 313 314 317 318 320 323 325 324 324 323 324 324 324 324 325 326 325 326 326 327 329 329 328 328 326 325 325 322 320 321 321 321 322 323 324 324 325 326 325 325 325 324 323 322 322 321 323 325 325 330 333 333 331 332 334 333 331 330 330 329 327 326 326 323 321 322 323 327 329 329 328 328 328 329 329 330 330 330 329 329 329 328 327 326
306 309 315 316 318 319 320 320 321 321 323 324 325 326 327 326 327 326 326 326 325 326 325 328 328 328 328 326 325 323 321 320 321 323 323 324 325 327 328 328 328 328 327 327 327 326 326 324 323 323 323 325 328 331 332 333 334 333 332 331 328 329 326 327 328 327 325 325 322 321 321 323 323 325 325 325 321 320 321 322 327 327 326 325 323 323 322
310 317 319 319 318 319 319 321 322 323 324 324 325 326 326 325 325 325 325 325 325 325 325 327 328 328 327 326 325 322 321 323 323 324 325 326 327 328 328 328 329 328 328 328 329 329 328 329 328 326 324 324 326 329 331 334 335 333 332 331 330 330 329 330 328 329 327 328 325 322 321 323 322 322 321 322 325 323 321 315 313 316 325 326 327 325 322
305 309 315 317 308 310 315 318 321 324 326 326 325 325 324 323 324 324 323 323 326 328 325 326 327 327 327 327 325 323 323 324 325 326 327 327 327 327 328 329 329 329 329 329 329 329 329 330 331 330 328 327 327 326 328 330 331 331 332 331 328 325 324 324 327 326 326 323 326 327 323 321 322 321 311 303 309 321 322 312 303 298 301 315 316 324 327
303 311 320 320 317 317 320 321 323 325 326 325 324 323 323 323 324 324 324 322 325 327 327 330 327 328 327 325 325 324 323 324 326 327 327 327 326 326 327 327 327 327 329 330 330 330 330 331 330 330 330 330 331 329 330 329 328 330 330 327 326 325 326 323 323 325 323 326 327 326 329 326 325 324 322 320 297 298 306 307 302 295 295 296 300 303 316
314 315 320 319 317 315 321 323 325 324 325 324 323 324 325 324 324 324 324 324 324 325 326 328 330 330 329 326 324 323 324 324 325 325 326 327 328 328 328 327 327 328 327 328 328 328 329 329 330 330 329 330 331 330 331 330 329 329 329 327 325 323 324 324 326 326 325 326 328 328 327 328 328 327 326 323 323 301 296 301 300 296 295 295 295 297 298
316 319 321 322 320 320 324 326 324 325 325 324 323 323 324 324 324 325 325 325 326 325 325 326 329 330 329 326 324 323 323 323 324 325 326 327 326 326 327 327 327 328 328 328 329 329 329 329 329 329 328 328 330 330 333 331 332 331 329 328 323 322 323 324 324 326 325 327 327 326 327 329 329 328 327 324 324 321 319 299 297 296 296 295 294 295 296
323 322 323 323 321 322 325 324 323 324 324 325 324 324 325 326 325 326 326 327 326 326 326 326 327 328 328 326 325 324 324 323 323 325 325 326 326 325 325 326 327 328 329 329 329 328 328 327 327 327 327 325 327 328 328 330 331 331 331 329 326 322 322 324 327 325 324 324 325 326 327 326 327 327 327 323 325 325 323 321 319 309 297 295 296 298 296
322 323 322 320 317 320 323 320 319 324 324 325 325 326 325 326 327 327 328 328 328 327 326 327 327 328 328 327 326 326 325 324 325 324 325 325 324 324 326 328 328 329 328 328 326 323 324 327 327 326 324 322 326 327 327 327 330 330 330 330 328 323 321 324 327 326 326 325 323 324 325 326 326 326 327 328 326 324 324 323 325 325 323 321 304 298 318
323 324 323 317 315 318 321 323 325 325 325 324 325 325 324 326 325 326 326 327 328 328 327 328 327 327 326 327 326 325 325 326 324 325 325 325 325 326 327 329 328 328 327 326 325 326 324 325 324 324 323 326 327 328 327 327 328 330 328 327 327 327 328 327 326 326 325 326 325 325 325 326 327 325 324 325 326 325 324 323 322 322 322 325 325 310 299
322 323 323 322 324 324 325 327 326 325 324 326 327 325 325 323 322 322 323 324 327 328 327 328 330 329 328 328 327 326 326 326 325 325 326 327 326 327 329 328 326 325 324 324 324 325 325 324 324 324 325 326 328 325 327 326 326 327 326 325 323 324 325 326 328 326 327 326 327 325 320 318 322 325 325 325 326 325 326 323 324 322 322 325 326 324 316
323 324 322 323 324 323 322 323 323 323 323 325 324 323 323 322 320 320 321 321 324 323 325 328 328 328 330 329 328 328 326 325 325 327 327 328 328 328 327 326 324 323 324 323 324 325 325 325 324 324 324 323 323 325 323 325 322 324 324 326 326 325 325 327 326 325 327 327 325 324 323 325 326 326 324 325 326 324 324 322 323 322 321 324 324 321 327
323 326 327 327 325 323 321 323 325 324 324 325 325 323 322 323 321 320 321 322 323 322 325 326 326 327 327 327 328 328 328 328 328 327 328 328 328 327 325 323 320 319 321 323 325 325 325 325 324 325 326 326 325 324 323 323 323 322 322 321 322 325 324 324 324 323 323 324 324 324 323 323 323 322 321 322 322 323 323 325 323 322 322 321 321 320 322
322 325 326 324 323 323 322 324 324 323 323 325 324 323 322 321 320 319 320 320 321 322 324 324 324 325 326 327 328 327 327 327 327 327 326 326 326 325 325 323 324 322 323 323 324 324 325 325 325 325 327 326 326 324 322 321 322 321 320 320 321 321 326 323 324 324 324 324 323 322 321 322 320 321 321 322 321 322 322 323 322 322 323 322 321 322 324
322 322 323 322 321 321 322 325 323 323 324 324 324 325 325 323 322 320 321 321 320 322 323 323 324 325 325 326 326 325 325 325 325 325 324 325 324 325 325 324 325 324 324 325 326 325 324 323 324 325 326 325 325 322 320 319 320 319 320 321 321 320 322 324 322 320 321 319 320 320 321 320 320 320 320 321 322 322 322 321 321 321 322 322 321 325 320
323 323 323 324 322 319 320 323 325 324 325 325 325 324 324 324 323 323 322 322 321 321 321 323 324 325 325 325 325 324 324 322 320 322 323 323 324 324 324 324 325 325 325 326 325 324 323 323 324 324 326 325 322 321 320 319 320 321 321 321 321 320 320 320 322 322 321 320 320 322 322 321 321 320 322 320 321 321 321 321 320 320 320 320 321 322 310
326 324 322 322 323 323 323 326 326 325 325 324 324 325 325 325 324 323 323 323 322 321 323 323 323 323 323 322 322 322 321 320 321 321 322 322 324 325 325 324 325 325 325 324 324 323 325 325 326 324 322 321 320 320 320 322 321 321 322 321 322 321 320 320 320 319 318 319 321 321 321 320 320 321 321 321 320 321 320 320 320 319 319 319 321 323 319
323 321 323 324 325 324 325 327 325 326 326 325 325 325 324 324 323 323 322 323 323 322 324 324 323 323 321 322 320 321 321 320 322 322 323 323 324 324 324 324 323 322 321 322 324 325 324 324 322 319 319 317 317 320 320 322 321 321 321 320 319 319 320 319 319 318 318 318 317 318 320 320 320 320 321 322 321 320 320 320 319 319 318 318 321 322 320
322 321 322 325 326 325 326 327 327 326 327 327 326 325 324 324 323 325 324 323 323 324 324 324 323 322 320 322 323 322 323 322 321 323 322 324 324 324 323 323 321 320 319 317 320 324 323 319 318 318 318 318 320 321 320 319 320 319 319 318 318 317 317 317 318 317 317 319 318 319 319 319 318 318 319 320 319 319 319 319 318 319 318 318 319 321 319
324 320 322 325 326 326 327 328 328 329 328 328 328 327 325 324 325 325 324 324 323 324 325 324 324 323 324 324 324 323 322 323 323 323 324 324 324 323 322 320 318 319 316 319 324 323 322 319 316 318 319 319 319 319 319 317 317 318 318 317 318 317 317 316 316 316 316 317 318 318 319 318 318 317 317 318 318 319 319 319 318 318 319 319 320 321 320
324 324 324 328 329 327 328 328 328 327 327 328 327 326 326 325 326 326 324 324 325 325 325 324 325 324 323 323 322 322 322 323 323 323 323 323 323 322 321 319 322 323 321 322 322 320 320 318 316 319 319 317 318 318 317 315 317 317 317 318 318 317 318 317 316 315 315 317 316 316 317 317 318 317 317 317 318 318 318 319 318 318 318 319 320 320 319
324 324 326 327 326 326 327 327 326 326 326 327 327 326 326 325 325 325 325 324 326 326 325 324 324 321 322 322 322 321 323 324 324 324 323 322 321 320 319 322 322 322 319 315 318 318 317 315 317 318 318 318 317 318 317 318 316 317 318 317 317 316 315 316 315 314 314 315 314 315 316 316 317 317 316 316 317 317 318 319 319 319 319 319 319 319 320
325 324 324 326 326 327 327 327 325 326 326 327 328 328 328 326 326 325 324 324 326 326 326 325 323 322 322 322 322 322 324 323 324 324 323 321 318 318 314 314 320 320 318 317 318 316 315 314 316 317 317 317 317 318 318 316 315 316 317 315 315 315 314 315 314 314 315 314 314 315 315 315 315 315 316 317 317 318 319 318 317 317 317 317 318 318 318
327 327 326 325 326 327 326 326 325 325 325 327 328 328 328 328 327 325 326 327 326 324 326 325 324 323 323 323 323 323 323 323 322 321 321 319 317 316 314 315 319 318 315 315 314 315 318 318 317 317 317 318 318 314 315 314 315 315 315 315 316 316 315 314 315 315 315 315 315 315 315 315 315 314 315 316 317 317 318 318 317 317 316 318 317 319 316
328 327 326 325 326 325 323 324 324 325 326 326 328 329 330 329 328 328 327 327 325 325 325 325 324 324 323 324 323 322 322 322 321 320 320 320 320 319 318 318 320 318 312 316 316 317 315 316 315 317 314 314 314 314 314 314 316 315 314 314 315 314 314 313 314 314 314 314 314 315 316 315 315 315 315 315 315 315 316 317 317 317 316 317 320 317 318
328 328 326 326 325 325 325 325 326 327 326 326 329 330 328 327 327 327 327 326 325 325 325 325 324 324 324 324 322 321 321 320 319 319 317 316 315 317 318 318 317 316 313 313 314 314 314 314 317 314 313 313 313 313 313 315 316 314 314 313 313 313 313 313 313 314 314 313 313 314 313 313 314 314 315 314 315 315 315 315 316 316 316 317 316 318 315
329 329 327 326 326 326 326 325 326 325 327 329 329 328 327 326 327 328 326 326 325 325 325 325 324 323 323 322 320 320 320 319 319 317 313 312 310 313 316 315 316 315 313 311 314 313 314 315 313 314 314 311 312 313 314 315 314 313 313 313 313 312 312 312 312 312 312 313 313 312 314 313 313 313 313 313 313 314 314 314 315 315 315 315 314 313 314
327 329 327 323 325 326 327 327 328 329 329 328 326 326 327 328 328 327 327 326 326 326 326 325 324 323 322 321 322 321 321 318 318 318 318 317 316 316 317 314 315 313 312 309 312 313 314 312 313 312 311 311 311 311 313 313 313 312 312 312 312 311 311 311 312 312 312 312 312 312 312 311 311 312 312 312 312 312 313 311 311 313 313 313 314 313 313
327 326 328 329 328 329 329 329 329 329 327 326 324 324 326 327 327 326 326 327 326 325 324 324 324 324 323 322 320 318 315 314 316 316 317 318 316 315 314 313 311 310 310 311 312 313 313 312 312 311 309 309 310 311 312 312 313 312 311 311 312 312 311 311 311 311 310 310 310 310 310 310 310 311 311 311 312 311 311 310 310 311 311 311 310 309 309
328 327 325 328 330 328 328 329 329 325 324 324 325 325 326 327 326 326 326 325 324 324 324 324 322 322 323 321 321 318 316 314 311 312 315 315 315 315 313 313 312 310 309 310 308 310 311 310 309 308 308 310 310 312 311 312 311 312 312 311 311 310 310 310 310 309 309 309 309 310 309 309 309 310 310 309 309 310 310 309 309 310 310 309 308 308 307
330 330 331 331 329 330 329 329 325 324 324 325 325 325 326 325 325 324 323 323 322 321 320 321 321 321 321 319 318 316 317 317 316 313 315 315 314 313 313 313 311 309 310 311 311 312 310 308 307 307 307 308 310 312 311 311 311 311 310 310 310 309 310 310 311 311 310 309 309 308 309 309 309 309 308 308 308 308 308 308 309 308 306 308 308 308 308
331 330 330 329 328 329 328 326 324 323 325 326 325 325 325 324 321 321 320 320 319 318 320 319 319 318 318 316 315 316 318 317 317 317 316 316 315 316 314 313 314 309 309 312 314 312 310 308 307 306 306 309 311 312 312 311 311 311 311 309 309 310 310 309 308 307 308 309 308 308 307 307 308 307 307 307 307 307 307 307 308 307 305 306 306 307 307
329 328 328 329 329 331 330 327 325 326 326 325 325 324 323 321 320 319 320 319 318 318 317 317 317 316 316 315 315 316 316 316 316 315 314 314 314 314 313 313 311 309 311 311 310 311 312 311 309 306 305 308 311 311 311 311 311 309 308 309 310 309 310 309 308 309 310 309 307 307 307 307 307 308 307 307 307 307 306 307 306 306 306 306 307 306 306
328 329 329 329 329 329 328 326 327 328 327 326 324 322 322 320 320 319 319 319 318 318 317 315 313 314 315 314 314 315 314 314 313 312 312 311 312 311 312 311 310 309 309 309 311 311 311 310 310 307 308 310 311 311 309 308 308 310 310 311 309 309 310 310 308 308 308 308 307 307 306 306 306 306 306 306 306 305 305 305 305 305 305 305 305 305 305
Wind_Speed
9 8 9 7 7 6 6 5 7 8 7 8 10 9 9 4 6 9 5 3 1 3 6 3 4 7 8 9 10 10 10 9 9 10 11 11 12 11 12 11 11 11 11 10 9 8 6 6 6 4 2 1 2 3 4 5 4 1 2 3 3 3 3 5 6 7 13 12 10 8 9 8 8 10 10 7 4 1 2 2 3 6 7 11 12 12 13
7 6 7 6 7 7 5 7 6 6 6 8 7 8 8 7 3 4 5 3 3 2 3 2 2 3 4 7 7 9 11 13 10 11 11 10 10 11 10 10 10 10 10 9 9 8 8 8 7 6 4 3 2 3 4 5 7 7 3 2 3 3 3 5 5 5 4 7 14 12 11 7 6 6 8 8 3 3 2 0 0 2 3 9 13 12 13
9 9 5 7 8 8 10 5 6 6 7 6 3 6 4 5 6 4 5 3 5 4 2 1 3 2 2 5 8 9 9 10 12 12 12 11 10 10 10 9 10 10 9 9 9 8 8 8 7 6 6 5 4 2 3 3 6 9 8 6 4 2 3 3 5 5 4 4 7 15 10 7 7 8 9 8 5 3 4 4 4 3 5 7 8 12 13
8 8 7 6 6 7 8 10 8 7 7 7 4 5 2 5 6 3 4 2 3 7 3 3 2 2 3 6 7 9 9 9 10 11 10 10 10 10 9 10 10 10 10 9 9 9 9 9 8 7 7 6 4 4 3 1 4 4 3 5 6 4 3 2 3 5 5 4 5 8 14 12 9 9 8 8 7 5 5 6 4 5 9 8 7 6 8
9 8 4 5 7 7 9 11 10 9 9 2 3 2 2 4 3 6 3 3 3 4 6 1 2 4 4 6 5 7 10 11 11 11 10 9 10 10 9 9 10 10 10 9 9 10 9 9 8 7 6 6 7 6 5 5 4 3 3 2 2 2 3 3 4 5 6 7 5 6 8 13 10 9 9 8 7 5 5 5 4 5 6 7 5 3 1
6 5 1 3 6 9 3 8 5 2 4 4 6 5 5 2 5 4 1 3 6 5 8 9 7 5 6 6 6 6 8 9 10 9 7 6 7 8 10 9 9 10 10 9 9 9 8 7 7 6 5 5 5 5 5 6 6 6 6 7 7 7 4 2 4 4 4 5 7 7 8 10 13 9 7 7 6 5 5 5 4 4 5 3 3 3 2
8 1 2 6 9 3 5 2 4 2 4 4 6 5 2 2 4 1 7 6 5 5 4 5 6 6 8 9 8 8 8 7 8 8 5 4 4 8 7 7 7 10 11 11 10 9 8 7 6 5 6 6 5 5 6 7 7 6 8 9 9 9 9 7 5 4 3 2 6 9 10 10 11 10 8 6 6 5 6 5 4 4 4 3 3 3 3
6 5 6 8 3 4 3 3 3 4 5 5 6 7 4 6 4 2 4 5 6 5 6 6 6 6 8 9 9 8 6 4 3 5 2 4 3 7 6 1 2 8 10 10 10 9 7 7 7 8 8 7 7 7 7 8 9 10 10 10 10 9 9 9 9 8 5 2 7 9 9 10 8 8 12 7 6 5 7 6 4 3 5 4 4 5 5
8 5 5 7 3 7 10 8 5 5 5 6 7 6 4 5 6 4 1 3 5 7 7 8 7 6 6 6 7 7 7 3 2 3 1 2 2 7 7 6 6 8 10 10 9 9 9 8 9 9 7 8 9 9 9 9 9 10 11 11 9 9 8 8 8 8 6 7 6 4 4 6 7 8 7 6 5 2 5 6 6 6 6 6 5 5 6
6 7 8 6 7 7 4 4 4 4 5 3 1 3 3 5 7 6 5 2 2 8 7 7 7 6 5 3 5 7 7 6 4 3 2 1 2 6 7 8 8 8 9 9 9 10 10 10 9 8 8 9 9 10 11 10 10 10 10 10 9 8 9 8 8 8 8 8 8 7 7 7 8 7 7 5 10 5 6 7 9 8 6 5 4 4 6
6 6 8 7 7 2 4 5 3 3 1 6 3 6 1 4 10 10 6 4 4 6 7 7 6 4 4 2 5 8 8 7 6 5 5 4 5 6 7 8 9 9 7 8 8 9 11 11 9 9 9 9 10 10 10 10 10 10 10 9 9 8 8 7 8 7 8 10 9 9 9 9 8 8 8 7 7 5 5 5 7 4 4 3 2 2 2
8 7 7 8 5 4 3 3 2 4 2 2 5 9 4 6 7 3 9 13 11 5 4 9 9 4 3 4 6 8 8 9 8 5 4 4 5 7 8 9 8 7 5 6 8 9 10 10 9 9 9 9 10 9 10 9 10 10 9 8 8 8 7 7 8 10 10 10 10 9 9 8 7 7 7 8 8 6 3 4 2 4 4 2 2 2 4
11 9 8 7 3 6 5 2 3 4 2 4 8 5 4 2 3 4 7 5 3 2 3 3 6 4 2 3 10 10 8 8 8 8 7 5 6 7 8 7 6 7 8 8 8 9 8 8 9 9 9 9 10 9 9 9 10 10 8 7 8 8 8 8 9 9 9 9 9 8 7 6 7 7 7 5 5 3 4 5 5 5 7 6 5 6 6
11 8 8 7 1 5 3 3 2 4 4 7 2 3 3 2 4 3 9 2 2 3 3 5 3 5 7 10 10 9 8 7 5 6 9 10 9 9 8 6 7 7 7 7 8 8 8 8 8 8 8 8 8 8 9 10 9 9 8 8 8 8 9 9 9 9 9 8 7 7 8 7 8 9 8 7 7 8 5 2 1 2 5 6 6 5 7
7 7 7 3 5 1 5 5 4 4 9 4 5 6 4 4 3 2 12 9 4 2 2 6 5 9 9 9 10 8 8 7 6 6 8 8 7 7 8 7 7 7 7 8 9 9 8 9 8 8 9 9 8 8 9 9 8 7 8 8 8 8 8 9 9 9 8 9 8 7 8 9 9 9 8 8 8 8 8 8 9 9 7 6 7 7 7
9 7 7 2 5 7 7 6 2 1 4 6 6 7 5 6 4 3 3 11 13 11 10 10 9 8 9 8 8 7 7 8 8 8 8 8 7 7 8 9 8 9 8 8 8 9 8 8 8 8 8 8 8 8 9 7 7 7 7 7 6 7 7 8 9 9 8 8 8 8 8 7 8 8 9 9 9 8 8 8 7 7 7 7 8 8 8
6 2 5 2 2 5 4 2 4 6 9 8 7 5 5 4 4 1 3 5 4 4 7 7 9 10 9 9 8 8 7 8 8 9 9 8 9 9 8 8 8 8 8 8 8 9 8 8 7 7 7 7 8 8 7 6 6 7 7 7 7 8 8 8 7 8 8 8 8 8 8 8 8 7 8 8 8 8 8 8 8 7 7 7 7 7 7
2 2 4 4 1 3 5 4 4 6 6 6 5 4 5 3 4 3 3 5 5 5 6 7 8 8 10 9 8 7 8 8 8 8 8 8 9 10 10 9 8 9 9 9 9 9 8 8 7 6 6 7 8 7 6 6 6 6 6 6 7 7 7 8 9 8 8 8 8 8 8 8 8 8 8 8 8 7 7 7 7 7 7 6 6 5 5
1 3 9 8 5 4 5 6 5 4 4 3 3 4 3 4 4 4 5 5 6 6 6 7 8 10 11 9 7 7 8 9 8 8 7 7 7 8 8 7 7 7 8 8 9 8 8 8 7 7 7 7 7 6 7 6 7 6 5 5 6 6 6 6 7 8 9 8 8 8 8 7 7 7 7 7 7 7 7 6 6 6 6 6 5 5 5
6 4 2 4 5 2 4 6 6 6 5 5 3 4 5 5 5 5 6 6 7 7 7 7 8 10 10 10 8 8 8 9 8 8 8 8 7 7 6 7 7 8 8 8 8 7 7 7 7 7 7 7 8 8 7 8 7 6 7 7 7 7 7 7 6 6 6 8 9 8 9 9 9 8 8 7 8 8 7 7 6 5 5 5 5 5 5
6 6 4 4 4 4 5 5 4 5 6 6 6 6 7 7 7 7 6 5 6 7 8 8 9 9 9 9 8 9 9 8 8 8 8 8 7 7 6 6 6 6 7 8 7 7 7 6 6 7 7 7 7 7 7 7 6 6 5 5 5 5 4 4 5 4 5 5 6 6 8 8 9 8 8 8 7 7 8 6 5 5 5 4 4 4 5
8 8 7 7 6 7 8 7 6 7 7 7 7 7 8 8 8 7 7 7 6 7 9 9 9 10 9 10 10 10 9 8 9 8 8 7 7 7 6 6 6 7 7 7 7 7 6 5 6 6 6 6 7 7 6 6 6 6 6 5 5 6 6 6 6 5 5 6 5 4 5 6 7 7 8 10 7 6 6 9 11 8 5 5 5 6 5
7 5 13 10 6 4 6 8 9 9 8 8 8 8 8 8 8 7 7 8 8 9 9 9 9 9 9 10 10 10 9 9 8 7 7 6 5 5 5 5 5 5 7 6 6 6 5 5 5 5 6 5 5 6 6 5 6 6 6 5 5 5 6 6 6 6 5 4 4 4 4 4 4 5 5 7 9 10 8 8 8 8 8 7 8 7 5
3 4 4 8 7 5 8 10 11 9 8 8 9 8 8 8 8 8 7 7 8 9 9 8 8 9 9 10 10 10 10 10 9 8 7 6 5 5 4 4 5 5 4 4 5 6 5 5 5 4 5 5 4 5 6 5 5 6 6 5 4 5 5 4 4 5 4 4 3 3 3 2 2 1 3 6 5 6 6 6 5 6 7 8 8 7 9
4 6 7 6 6 3 7 10 10 9 9 9 8 9 9 9 8 8 8 7 7 9 8 9 9 9 9 9 10 10 10 10 9 8 7 6 6 6 5 5 5 5 4 4 3 4 4 4 4 4 4 5 4 3 4 5 5 5 5 6 6 6 5 5 4 4 4 3 3 4 3 0 1 1 3 1 6 5 3 2 2 3 4 6 5 7 7
2 2 7 7 5 4 8 10 10 10 10 10 8 8 8 8 8 8 8 8 7 8 8 9 10 9 9 9 8 10 10 10 10 8 7 7 6 6 6 6 5 4 4 4 4 3 4 4 4 4 4 4 5 4 3 4 4 3 3 4 3 4 4 5 3 3 4 3 3 2 2 3 3 3 0 2 4 2 6 5 3 1 3 2 2 2 3
6 6 9 7 7 8 10 9 9 11 10 10 9 10 9 9 8 7 8 8 8 8 8 8 9 9 8 9 9 9 9 9 10 8 6 5 5 4 4 5 4 4 5 4 4 4 4 3 4 4 4 5 5 3 3 4 3 3 3 3 1 4 1 3 3 3 3 3 3 3 3 4 3 4 3 0 2 3 2 2 4 5 5 3 4 1 1
7 8 9 8 7 8 10 9 11 12 11 10 10 11 10 10 9 9 9 8 8 8 8 8 9 9 9 8 8 9 8 9 9 8 7 6 5 5 4 4 5 5 5 5 5 4 3 3 3 4 4 4 3 3 4 4 4 3 3 3 4 1 2 2 2 3 3 3 3 3 4 4 4 4 4 4 6 5 5 2 3 4 3 5 5 5 1
9 9 9 6 6 7 8 8 11 11 11 10 11 10 11 11 11 10 10 10 9 8 8 8 8 8 7 7 7 8 8 8 7 7 6 5 4 4 5 6 6 6 6 5 5 4 4 3 2 3 3 1 1 4 3 3 5 3 4 5 6 4 4 2 3 4 3 3 3 3 4 5 5 5 5 4 4 5 3 4 3 3 3 1 4 5 3
9 9 8 6 6 9 10 11 12 12 11 12 12 11 11 11 10 9 10 11 10 9 9 8 8 8 8 8 8 7 8 7 6 5 5 5 5 5 6 5 6 6 5 5 4 3 3 2 1 1 1 5 4 4 5 5 5 4 4 4 5 4 4 5 5 6 6 4 2 1 5 5 5 4 5 4 4 5 6 5 5 6 7 2 2 4 7
9 9 10 9 8 11 12 12 12 12 12 12 12 12 12 10 10 9 9 10 9 9 9 9 8 8 8 8 7 7 6 6 6 6 5 5 5 5 6 4 4 3 4 3 3 1 1 1 1 3 3 4 6 5 5 5 5 5 6 4 5 2 4 4 2 5 6 6 5 4 4 4 5 4 5 6 6 5 4 4 5 5 6 5 3 3 2
12 12 12 10 10 11 11 10 12 12 12 12 13 12 12 12 11 11 10 9 9 10 10 10 10 9 8 7 6 7 7 7 6 6 7 6 6 6 5 3 1 2 1 2 1 1 1 1 2 3 4 4 5 6 7 6 6 6 6 5 5 5 5 1 5 5 6 6 6 5 5 4 4 5 6 6 5 5 5 5 5 4 6 6 7 3 4
11 12 11 11 11 11 11 11 12 13 13 14 12 11 10 10 10 10 10 10 9 9 9 8 8 8 8 8 8 8 8 8 8 8 7 6 6 5 4 3 2 2 1 1 1 1 1 1 3 3 4 5 6 7 8 8 7 6 6 6 5 6 2 8 5 5 5 6 7 7 6 6 5 6 6 6 5 5 6 6 6 5 6 5 4 7 5
11 10 9 11 12 12 13 13 12 11 11 12 11 11 11 10 10 10 11 10 10 10 9 9 9 9 8 8 8 8 9 8 7 7 7 6 6 5 4 3 2 2 1 1 3 4 4 3 3 5 5 6 6 7 7 7 7 6 6 6 6 6 5 6 4 5 6 5 6 6 6 6 4 6 7 7 6 6 6 6 6 6 5 4 2 5 4
8 9 10 11 13 12 13 12 13 12 12 12 12 11 10 10 10 10 11 10 11 10 10 10 9 9 9 9 8 8 8 8 7 7 7 7 6 6 5 4 3 3 2 2 2 1 2 2 3 5 6 7 7 7 6 6 6 6 6 6 6 6 6 5 5 5 5 6 6 6 6 6 6 6 6 7 7 6 7 6 6 6 7 5 2 3 4
7 11 9 9 10 12 12 13 13 14 13 13 12 12 12 11 12 11 13 11 10 10 10 10 10 10 10 9 9 9 9 8 7 7 7 6 6 5 5 5 4 4 5 5 3 1 2 3 9 5 5 7 7 5 5 5 6 6 7 7 7 7 6 6 5 6 5 5 6 6 6 6 6 7 7 8 7 6 6 8 7 6 6 6 2 3 4
9 11 10 8 9 10 12 12 12 12 12 12 12 12 12 13 13 12 12 10 11 10 10 10 10 10 10 9 8 8 8 7 6 6 6 6 5 6 6 5 5 5 2 5 3 5 5 2 8 5 4 5 4 4 2 6 5 6 7 7 7 6 6 7 6 6 6 6 6 6 6 6 7 7 7 7 7 7 7 8 7 6 6 6 4 4 4
12 14 12 9 9 11 11 11 10 10 12 13 12 12 12 11 11 12 12 10 10 10 9 9 10 9 8 9 8 8 8 7 6 6 6 6 6 6 6 5 5 6 5 1 3 1 2 6 4 3 4 3 3 3 4 4 5 6 6 6 6 6 7 7 6 6 6 6 6 6 6 7 7 7 7 7 6 7 7 7 7 6 6 5 4 4 5
14 11 9 9 9 10 10 10 11 10 11 13 12 12 11 12 12 12 11 10 9 9 9 9 10 9 9 9 8 6 6 6 6 6 5 5 5 5 4 2 3 5 5 3 3 2 4 5 3 3 3 2 3 4 3 2 5 6 6 5 5 5 5 5 6 6 6 6 6 6 7 7 7 7 7 7 8 7 7 6 6 7 6 5 4 5 5
10 9 9 10 10 10 10 10 10 10 11 11 12 12 12 12 11 11 10 9 9 9 9 9 9 8 8 8 7 6 6 6 6 6 7 5 4 5 4 5 5 4 5 4 3 2 5 1 2 4 3 2 3 4 2 4 5 6 6 5 4 4 4 4 5 5 5 5 6 7 7 7 7 7 7 7 7 7 6 6 6 4 4 5 5 5 4
11 11 11 10 11 10 11 10 10 10 10 11 12 12 12 12 11 11 11 10 10 10 9 9 9 8 8 8 7 7 6 6 6 6 5 5 5 6 6 5 3 5 5 3 5 5 4 2 2 4 1 2 2 6 5 6 7 6 4 3 4 5 5 6 7 7 7 7 7 7 7 8 8 7 8 7 7 6 6 5 6 6 5 4 4 3 3
12 12 12 12 11 11 11 10 10 10 10 10 11 12 12 12 11 11 10 10 10 10 9 9 8 8 8 7 7 7 7 6 5 5 5 5 5 4 5 4 7 6 7 3 4 3 5 6 4 3 3 3 3 9 9 6 5 5 4 5 4 5 5 5 5 5 5 5 6 5 6 7 7 7 7 7 6 6 6 5 4 5 5 2 3 4 6
13 13 13 12 11 12 11 11 10 11 11 10 10 11 12 12 11 10 11 11 10 10 9 8 8 8 8 7 7 7 6 6 6 5 5 4 1 1 3 1 2 6 5 1 3 5 4 1 1 4 7 6 6 11 9 6 5 4 3 3 3 4 5 5 5 6 6 7 6 5 5 5 6 6 6 6 6 6 6 6 4 3 4 4 5 4 5
13 13 13 13 12 12 11 11 11 11 11 10 11 12 12 11 10 11 11 11 11 10 10 10 9 9 8 8 8 6 6 6 6 6 5 5 3 3 2 2 2 7 4 2 4 4 4 2 3 7 6 4 6 8 7 6 7 5 2 3 3 4 4 4 4 4 5 5 5 6 6 6 6 6 6 7 7 6 6 6 6 4 2 2 1 2 4
13 11 12 14 14 12 12 12 12 13 11 11 11 11 12 11 11 11 11 11 11 10 10 10 10 9 8 7 6 5 5 5 4 4 5 5 5 5 7 3 4 5 5 4 4 4 1 7 8 7 5 5 8 11 7 8 6 4 3 3 3 3 3 4 4 4 4 4 5 5 5 6 6 7 6 5 6 6 6 7 6 5 5 4 3 3 3
13 13 14 16 15 13 12 12 12 12 12 12 12 11 11 11 11 11 11 11 11 10 9 9 9 8 8 7 6 5 5 5 4 4 2 3 4 5 7 2 3 3 10 5 3 3 5 11 8 6 4 4 7 8 8 6 2 3 2 3 3 3 3 3 3 3 3 4 4 5 5 6 6 5 5 6 6 6 5 5 5 4 5 4 5 5 3
12 10 11 13 14 15 14 13 13 14 14 13 12 11 11 11 11 10 10 10 10 10 9 8 8 8 7 7 6 6 6 6 4 4 3 4 6 6 8 9 11 11 7 3 2 2 3 5 5 5 3 4 8 7 6 2 2 2 2 2 3 3 3 3 3 3 3 2 3 4 5 4 5 5 5 4 4 4 5 4 4 4 3 3 3 4 4
11 12 14 14 15 15 14 14 14 14 14 13 12 12 12 12 11 11 11 10 10 10 9 8 8 7 7 7 7 5 5 5 5 4 4 4 4 6 6 6 5 4 5 2 2 5 9 7 6 1 3 7 6 6 5 3 2 2 2 2 2 2 2 2 2 3 3 2 3 4 4 3 3 4 4 4 4 4 4 5 5 4 3 0 2 2 3
10 10 11 11 13 15 15 15 14 13 12 12 13 12 13 13 12 11 11 11 11 10 9 9 8 8 7 7 6 6 5 5 4 4 7 4 5 4 5 8 11 7 5 4 5 4 8 5 4 3 7 9 7 7 4 3 2 2 3 3 2 2 2 2 2 3 4 3 2 2 3 4 4 3 3 4 4 3 3 3 3 3 6 5 2 1 2
9 10 11 12 13 14 14 13 13 12 12 12 12 12 13 12 11 10 10 10 9 9 8 8 8 7 7 7 7 6 5 5 1 4 6 5 4 5 6 5 6 8 6 4 4 4 11 10 8 7 7 6 6 4 3 3 1 4 4 2 3 3 3 3 2 2 5 3 3 3 2 3 3 1 2 4 4 4 4 4 3 4 3 3 4 3 3
9 10 10 11 11 11 13 13 12 12 12 13 13 13 13 11 10 11 10 10 10 9 8 8 8 7 7 7 7 6 7 5 4 5 4 5 4 4 4 5 6 5 5 4 3 3 6 6 5 5 6 6 5 4 3 3 6 3 2 5 4 4 3 4 5 5 5 1 3 5 4 3 3 3 4 4 4 4 4 4 4 5 4 4 4 4 3
8 7 8 9 9 9 10 10 11 11 12 12 12 12 12 10 11 10 10 12 9 9 9 9 8 8 8 8 7 7 7 7 7 6 5 6 6 5 5 5 5 5 5 5 3 2 3 3 4 4 4 5 6 4 2 4 4 4 1 1 2 4 5 2 4 4 4 1 2 3 4 5 4 4 2 3 3 3 4 4 4 4 4 4 4 4 4
Wind_Direction
245 259 293 324 306 290 301 301 291 282 281 279 283 276 283 305 277 296 50 52 251 154 189 174 56 27 40 44 43 42 47 47 49 49 50 42 47 49 51 50 48 47 46 46 48 45 40 25 26 16 17 341 326 317 335 341 337 297 195 184 197 210 250 260 227 278 306 307 293 266 235 237 232 232 230 212 81 78 62 3 352 324 286 254 240 225 212
289 274 269 267 254 243 238 269 287 295 289 281 293 299 282 263 269 289 294 287 6 19 331 21 42 48 44 61 49 47 42 42 57 56 52 49 47 51 52 53 56 55 51 50 47 48 41 30 25 16 359 347 335 301 299 313 324 315 294 239 207 203 230 246 271 280 269 290 299 275 246 224 223 234 235 238 226 133 106 67 313 210 250 294 273 247 240
263 249 223 245 250 259 255 231 266 278 271 271 298 317 344 321 259 257 271 216 171 227 217 56 81 50 74 66 48 49 48 52 54 51 41 35 37 44 51 55 55 56 55 53 54 51 46 43 35 23 3 354 348 329 241 256 271 281 300 274 250 240 235 245 268 264 266 263 274 287 265 225 232 231 235 239 222 180 163 176 182 221 253 245 265 269 248
259 209 211 241 262 276 266 259 227 234 248 248 244 248 315 285 311 245 124 345 243 150 167 124 88 45 52 72 63 54 56 63 64 63 49 33 22 33 44 52 52 52 50 46 45 42 39 37 35 28 16 4 8 3 353 267 236 249 265 286 279 261 248 277 279 267 255 241 264 278 295 280 238 228 225 223 226 217 218 202 194 222 238 233 236 261 279
257 123 216 265 274 259 251 234 222 220 240 206 241 336 305 281 304 268 229 189 15 135 125 260 192 110 88 91 71 73 64 56 53 56 56 45 30 18 18 44 52 51 48 44 39 38 36 30 28 19 15 16 14 6 18 19 343 357 18 2 339 292 304 301 294 288 265 269 273 276 269 267 250 237 229 222 221 212 220 220 198 203 232 256 262 270 235
279 134 242 314 265 250 275 54 26 17 282 260 258 249 230 218 264 64 137 109 146 172 165 196 146 129 100 101 93 100 105 95 81 66 62 69 66 46 9 2 49 54 49 47 44 42 41 36 31 25 23 33 31 23 39 39 35 37 41 40 38 33 14 315 289 245 235 246 268 268 258 264 281 258 222 218 216 212 214 204 214 216 232 250 275 285 262
251 129 191 243 245 259 74 88 64 266 273 245 248 258 255 225 271 97 141 131 152 144 122 129 132 117 113 109 111 96 95 92 92 88 63 66 94 92 67 356 21 58 54 50 46 44 48 50 42 37 46 52 53 53 49 56 54 58 50 50 45 33 26 10 350 319 267 305 291 273 264 259 250 270 270 235 215 218 215 208 199 204 213 208 218 236 232
269 273 230 247 279 73 192 133 225 86 270 249 244 227 217 250 249 182 129 121 122 122 124 116 126 131 121 114 103 99 87 80 55 88 110 129 135 108 104 107 71 78 60 52 45 43 50 52 46 45 57 62 68 64 54 50 52 53 53 53 48 43 42 30 16 11 6 195 224 257 280 265 242 233 245 244 230 207 227 230 218 199 199 200 207 220 233
264 260 266 271 57 243 201 181 176 206 226 211 225 249 192 28 333 101 206 155 153 138 137 142 146 140 144 132 113 121 127 115 95 95 342 341 70 90 91 75 58 84 83 68 65 57 55 59 54 54 46 56 68 66 63 60 56 54 58 56 52 53 53 50 49 45 43 46 52 33 345 319 283 257 260 258 237 205 231 219 208 201 201 200 207 221 226
230 259 261 238 228 251 122 74 107 251 240 296 201 272 181 151 207 181 232 224 197 153 152 151 159 163 196 186 141 146 145 142 123 103 277 183 83 77 93 98 75 56 74 75 67 60 57 59 61 60 65 64 61 63 61 60 58 59 56 54 53 53 51 49 47 49 47 46 47 39 32 23 9 353 336 303 266 222 223 227 227 215 202 187 192 213 234
201 236 263 264 269 59 52 135 257 115 267 233 143 244 178 300 274 156 175 186 248 241 159 154 138 187 233 221 144 154 147 148 159 150 148 111 104 95 76 69 70 69 64 79 89 94 81 62 60 64 57 58 65 63 59 58 57 59 58 57 54 48 43 45 51 54 56 54 48 41 36 26 21 15 3 355 344 318 287 222 182 168 154 153 88 46 10
246 242 240 253 270 75 258 83 241 140 230 210 249 250 149 205 280 243 159 169 207 208 167 155 177 170 237 164 178 150 159 141 137 119 83 96 100 94 92 89 85 77 79 78 73 64 79 92 83 73 71 61 58 60 60 59 58 53 52 50 49 47 41 37 43 50 55 53 48 47 44 36 29 29 22 16 8 355 1 358 312 129 117 120 224 86 67
228 227 250 269 147 130 150 193 184 143 245 256 244 246 104 142 249 129 85 101 114 116 205 200 105 234 162 133 136 142 153 141 126 130 126 83 71 76 77 67 67 84 71 60 62 69 72 71 73 67 61 57 56 56 57 58 56 57 55 53 50 48 45 44 44 51 55 54 54 51 47 38 35 36 32 25 15 20 357 25 19 23 48 47 55 60 64
239 214 239 248 4 74 88 164 171 99 208 232 287 67 91 241 197 131 115 166 136 159 205 81 164 134 125 139 139 148 138 119 121 120 116 115 108 91 78 77 74 70 69 73 82 77 60 56 69 72 67 62 60 56 59 59 57 55 56 53 51 50 48 44 43 45 45 47 51 51 43 38 39 40 35 27 30 26 29 67 101 94 73 66 63 39 36
253 257 249 254 261 98 266 125 171 116 273 111 163 134 150 198 235 192 135 140 236 157 192 140 157 140 140 148 139 145 136 138 128 108 100 92 89 96 105 100 83 76 78 70 60 61 60 54 49 57 61 61 58 56 54 51 55 54 50 50 55 58 53 49 48 48 49 44 45 43 41 35 37 38 30 38 41 45 45 43 45 44 46 53 60 56 53
253 220 230 253 51 144 166 198 260 128 79 119 143 171 158 192 187 170 153 146 170 186 210 153 148 147 147 145 146 140 140 130 130 117 108 103 96 83 71 67 72 73 72 71 72 64 59 53 52 51 57 56 55 57 53 45 46 47 49 53 52 55 61 59 53 50 49 51 53 56 53 48 42 37 35 39 43 54 58 60 57 55 47 40 43 49 53
271 325 69 143 157 135 145 90 61 103 123 155 163 199 147 177 143 121 151 120 144 158 138 139 142 150 154 148 162 153 140 132 133 127 120 114 108 102 92 84 77 80 82 80 71 71 70 67 52 53 53 50 47 52 56 59 52 46 46 48 52 53 47 46 56 59 59 57 50 45 51 49 45 50 52 46 45 39 49 51 56 63 61 56 55 51 46
207 124 120 33 292 181 130 101 115 132 165 154 185 163 173 150 111 190 126 141 157 152 148 148 154 145 146 151 153 142 135 132 113 113 115 117 119 115 113 107 97 92 78 66 68 69 67 70 75 59 56 49 40 30 52 59 50 55 55 52 52 57 61 52 38 42 52 57 56 57 52 49 47 45 44 47 47 41 53 54 57 66 70 76 83 91 88
27 205 146 213 203 177 175 130 133 127 159 144 153 143 115 126 154 124 115 141 151 154 151 155 149 146 152 150 150 148 125 129 138 128 112 107 98 91 92 101 106 94 89 87 79 72 59 45 50 60 56 55 45 33 36 51 59 38 51 71 65 53 51 60 64 53 47 38 44 42 37 46 55 57 54 47 42 35 36 50 58 57 63 70 71 65 63
211 351 133 162 145 187 164 162 152 167 148 140 145 124 119 127 128 134 130 148 159 152 148 149 149 153 153 147 155 147 141 144 135 125 124 118 111 101 99 95 95 91 87 84 80 73 67 61 50 43 50 52 53 39 34 31 33 50 47 30 47 51 49 47 40 51 60 67 60 52 45 38 32 24 27 36 49 44 28 10 16 36 40 39 40 39 43
134 166 174 128 141 180 174 172 186 155 151 143 138 131 135 146 139 135 151 166 149 162 139 150 157 157 149 145 155 145 142 132 135 132 127 126 122 125 116 100 95 95 94 93 88 81 78 68 60 55 48 44 46 50 38 33 27 33 36 48 42 42 54 66 71 57 56 46 60 77 74 68 56 40 21 18 26 49 45 27 6 359 356 37 44 36 39
208 213 167 183 203 193 185 183 174 141 141 149 146 150 156 146 140 146 153 145 152 133 148 160 158 152 150 150 154 143 140 139 134 135 133 135 135 129 126 125 114 106 102 97 96 93 86 78 72 66 60 52 40 43 40 39 30 29 20 15 49 56 36 32 22 37 61 62 32 38 88 86 86 85 72 62 37 27 42 36 41 32 16 30 4 351 36
240 217 162 185 229 281 164 166 148 147 152 154 156 163 152 145 145 151 150 152 141 143 148 158 152 151 156 151 151 151 148 142 140 139 143 143 144 136 132 131 125 114 109 102 94 91 86 85 82 76 67 56 55 47 39 39 32 32 22 20 15 41 51 45 15 355 35 52 89 56 30 68 88 101 106 81 63 55 57 48 36 37 51 47 40 35 10
283 33 104 181 208 254 153 158 148 159 159 156 160 152 147 147 149 152 153 154 154 148 149 149 148 152 154 154 158 157 144 148 145 149 151 151 149 141 148 135 129 122 110 101 97 89 86 81 76 74 73 72 54 57 44 36 31 34 15 14 22 29 32 36 31 354 32 27 13 88 94 47 73 166 136 117 92 67 50 32 41 54 46 43 39 40 33
292 156 165 191 179 235 145 152 160 157 158 163 160 155 155 154 156 157 152 153 159 155 155 154 150 157 158 162 163 154 155 155 157 154 156 158 160 164 159 152 139 124 109 105 96 89 81 79 78 72 79 63 44 48 65 43 30 31 22 17 20 17 19 12 15 6 2 27 12 11 7 329 139 300 338 150 130 124 109 98 27 14 82 89 70 47 43
246 173 159 157 174 205 141 147 159 156 165 161 157 151 148 158 148 158 152 159 159 162 161 154 153 159 163 163 165 158 164 166 158 159 172 166 174 173 170 157 132 119 119 115 112 105 89 74 62 51 39 64 65 24 37 52 30 35 24 20 34 29 12 348 351 356 351 1 347 4 24 343 342 305 213 356 350 144 164 148 146 222 272 264 132 126 106
214 184 157 165 196 173 157 173 159 166 164 164 161 152 157 148 149 165 152 161 161 162 157 155 151 158 162 168 170 162 172 156 157 179 174 180 175 167 148 133 133 127 124 107 89 77 79 81 85 69 43 24 23 13 26 35 10 1 8 338 312 141 127 336 323 342 353 349 353 345 342 330 322 297 319 148 244 286 344 196 171 157 148 159 196 242 318
191 179 179 196 178 172 164 175 159 166 166 166 157 162 158 148 169 165 165 166 168 158 158 164 153 161 165 167 163 157 160 163 178 176 165 180 180 171 139 113 126 129 119 123 115 114 96 81 81 82 54 27 9 357 17 18 348 324 348 317 298 282 175 200 306 344 345 357 336 329 333 323 302 302 312 301 261 207 160 102 266 271 157 151 133 146 234
182 183 191 205 175 166 167 157 155 167 169 164 162 168 156 165 171 175 169 172 171 166 169 166 159 165 169 161 164 165 172 178 181 177 164 179 171 122 119 142 144 127 125 122 120 117 106 88 79 88 104 45 56 3 334 10 317 338 337 329 321 326 313 348 350 331 342 327 304 331 327 292 295 295 280 270 282 297 284 260 233 222 270 75 138 149 194
182 184 178 186 186 165 171 163 168 173 176 168 169 169 166 173 173 177 169 170 170 172 171 169 169 173 175 172 171 172 177 181 171 164 164 133 129 149 149 138 133 128 130 118 97 98 97 88 83 214 43 345 341 9 340 352 320 340 315 295 283 287 314 355 337 323 305 288 280 237 255 264 258 261 265 265 279 307 312 298 336 347 328 258 217 221 183
192 170 173 183 188 173 181 170 173 180 178 171 175 173 170 177 175 175 172 165 168 172 166 169 176 171 178 178 169 169 169 163 157 157 145 150 150 141 134 157 173 162 145 125 102 66 60 327 346 316 27 339 345 339 327 319 322 320 299 294 300 124 126 122 251 299 301 304 298 276 289 283 294 291 291 304 299 286 262 278 284 253 253 276 258 285 45
186 179 175 179 186 183 182 177 179 184 181 176 180 182 177 178 172 174 168 167 176 170 165 174 173 174 173 172 167 165 165 158 156 153 153 152 147 138 143 164 91 34 6 112 172 214 260 292 287 358 355 332 334 325 327 327 321 312 318 301 291 261 129 236 269 249 275 274 279 290 274 273 283 299 307 298 288 282 284 272 263 271 289 299 284 308 58
188 180 184 183 183 190 192 185 186 186 183 183 185 184 181 183 174 174 166 173 174 162 170 171 170 169 164 162 167 167 162 156 158 157 154 151 151 153 156 152 129 126 152 168 259 238 242 289 336 340 321 332 332 325 319 321 325 308 307 318 311 304 230 196 226 290 283 274 271 265 272 282 300 296 283 285 288 296 297 295 286 279 271 272 304 68 67
195 195 194 188 188 191 192 184 186 189 187 188 186 186 186 183 176 173 165 179 170 168 172 170 166 160 157 162 161 165 158 164 160 167 163 163 163 165 172 173 163 189 158 179 216 260 332 336 338 322 342 334 324 318 317 312 307 308 308 305 309 314 306 307 255 253 270 264 264 289 288 288 286 266 264 269 274 281 288 294 295 287 277 270 264 92 73
237 223 208 203 210 202 191 186 186 187 186 191 190 186 188 179 175 172 161 183 173 173 171 169 165 166 165 167 167 168 170 173 173 169 181 179 175 173 180 187 175 186 192 219 300 331 66 8 33 4 342 318 310 306 303 308 311 305 317 311 305 296 303 288 281 274 286 296 303 289 278 274 267 267 269 270 270 280 282 271 270 287 291 284 261 128 111
217 243 233 205 203 210 196 192 196 190 188 191 189 183 183 177 175 169 165 188 167 172 173 172 167 178 170 168 176 178 178 186 184 188 184 182 181 183 183 194 182 211 225 230 200 166 222 114 79 24 345 305 297 296 327 4 317 313 310 307 295 292 290 293 294 300 294 287 279 283 284 286 293 295 298 302 300 292 288 290 287 281 275 276 252 174 156
222 234 233 208 198 206 201 195 194 189 189 188 185 180 182 177 177 164 168 184 174 177 175 176 174 193 183 176 187 183 185 193 197 189 191 191 182 191 186 197 203 243 244 260 194 162 244 47 58 7 313 288 295 311 341 41 339 319 300 286 284 277 273 277 294 304 306 313 309 296 283 276 265 261 261 270 277 273 277 278 275 274 272 272 256 204 187
210 224 219 206 193 199 197 189 186 186 184 186 184 180 181 176 171 166 177 184 178 175 173 175 183 195 181 174 192 193 193 196 196 181 184 184 183 194 191 213 228 223 233 116 92 229 36 47 20 309 274 291 316 320 335 5 336 307 287 287 293 298 299 303 304 290 281 279 289 293 299 302 300 293 294 284 275 282 282 282 280 278 276 269 262 243 238
209 209 203 192 190 196 188 183 182 186 185 185 181 179 176 174 170 168 179 188 173 163 169 178 184 189 184 183 192 187 188 184 182 167 166 174 180 202 228 216 65 58 73 60 351 10 93 82 16 300 285 289 299 284 290 339 359 312 299 292 282 275 288 281 273 285 296 300 293 297 299 295 293 287 280 280 286 289 288 283 282 285 283 275 268 261 246
206 193 194 182 191 186 174 174 182 183 185 184 179 176 173 175 174 174 178 169 161 162 177 179 182 182 180 182 185 178 172 172 168 171 172 183 192 226 216 140 176 155 85 48 285 91 74 295 290 267 268 289 296 301 348 44 321 287 275 284 303 302 285 279 274 267 271 273 277 277 281 279 286 295 295 294 289 288 291 290 283 272 267 265 253 247 252
187 185 197 188 180 172 171 175 182 185 183 182 179 177 174 177 173 171 170 168 159 170 178 174 178 177 177 182 176 171 161 172 171 200 190 185 203 223 249 277 135 173 156 120 51 51 52 4 273 293 249 270 20 24 331 337 312 285 298 309 297 303 323 325 334 327 322 319 321 316 305 305 308 303 298 298 296 292 282 275 267 265 269 288 294 274 269
182 183 183 179 173 172 171 172 174 179 180 180 176 172 174 173 170 168 163 157 161 171 167 176 175 173 172 173 164 162 168 165 172 209 206 219 224 243 246 158 118 94 77 100 155 201 204 195 186 232 317 331 106 42 357 312 290 307 315 310 326 329 318 320 315 311 318 314 312 313 316 313 308 303 300 299 297 299 297 293 308 331 324 329 263 322 319
181 180 181 178 170 169 163 164 169 170 170 171 165 167 170 169 164 159 158 157 159 161 164 161 142 148 163 164 166 167 161 153 173 175 199 198 257 165 304 81 180 106 115 269 275 251 231 216 287 62 42 4 356 354 327 292 276 268 295 306 312 301 303 318 324 323 320 318 317 327 334 331 321 323 323 323 318 316 312 308 315 47 37 330 352 323 262
185 180 181 177 172 167 161 159 159 160 164 163 166 173 173 169 164 158 156 156 158 159 159 155 159 161 164 159 161 161 161 164 174 179 195 177 183 183 187 275 110 109 130 227 227 244 250 196 114 94 93 30 341 329 301 280 273 268 251 280 296 304 321 314 315 326 323 320 316 321 324 326 321 331 340 345 349 343 344 338 326 350 8 43 80 268 348
181 174 183 177 171 165 165 162 161 162 160 156 162 166 166 165 159 160 159 160 162 160 156 158 158 156 156 158 170 167 172 172 194 179 204 197 211 183 160 177 141 162 146 196 266 260 262 84 85 74 56 20 326 312 290 274 275 303 317 301 296 312 321 308 311 312 312 313 326 325 334 330 334 334 336 351 351 358 14 358 359 357 345 336 339 336 340
187 180 186 179 174 170 169 161 157 152 150 154 155 158 159 160 158 159 159 161 155 156 158 154 155 156 157 159 163 155 155 164 180 174 235 31 9 102 129 183 198 132 124 150 253 263 94 99 105 94 49 5 316 296 277 279 297 282 283 293 292 283 274 291 305 295 319 316 325 327 335 333 334 342 346 336 347 340 14 11 332 2 8 25 34 37 60
173 168 189 184 175 172 166 158 151 150 153 155 157 160 162 161 157 155 155 152 149 148 147 147 149 149 155 161 156 160 171 169 164 173 200 132 116 96 93 88 101 116 149 179 223 259 73 117 93 77 69 287 289 273 273 273 263 268 291 302 298 290 303 318 308 310 314 321 334 323 320 324 330 339 343 335 333 352 345 346 352 352 349 24 61 66 57
184 179 184 183 173 171 166 158 156 159 161 164 160 154 154 155 152 147 145 145 143 141 141 142 146 148 152 151 155 175 179 177 171 170 189 184 162 141 175 205 160 145 162 164 89 113 102 94 93 64 293 284 276 261 257 255 256 238 254 243 260 285 290 293 294 303 301 312 304 307 311 316 322 328 334 330 340 356 5 347 345 350 337 131 107 80 79
189 188 179 171 173 165 164 164 163 164 165 160 155 153 153 150 146 145 148 143 144 145 147 145 147 148 152 158 169 173 178 179 228 179 162 174 153 161 121 108 122 148 203 212 202 188 131 130 147 212 254 268 261 259 249 236 243 322 274 265 239 218 243 250 286 311 293 296 296 295 308 305 315 328 327 320 321 331 337 329 333 20 14 352 349 305 258
182 179 177 178 175 170 170 166 171 169 162 158 157 153 151 149 151 153 153 153 155 154 152 152 158 155 165 162 183 177 160 156 163 99 134 149 155 149 142 169 166 183 218 257 198 156 143 174 190 205 237 243 250 258 264 287 198 217 226 178 248 270 89 24 13 276 285 301 303 313 291 287 295 334 327 295 298 312 312 312 325 94 135 270 275 276 290
181 181 182 182 180 179 173 174 170 164 161 159 155 153 155 160 157 153 159 157 158 160 159 157 159 164 166 166 174 149 143 159 142 138 151 148 169 138 141 145 150 173 196 238 223 194 170 185 177 180 208 232 255 240 225 238 259 168 157 264 227 251 152 191 222 203 221 280 320 278 283 281 282 298 297 296 297 295 293 291 291 298 299 311 308 308 301
185 182 177 181 183 176 175 170 161 156 155 154 153 154 160 158 150 157 155 160 164 166 163 160 162 166 169 167 166 150 157 160 154 162 159 151 164 158 146 148 153 162 188 216 206 222 238 125 128 186 255 244 241 200 71 354 288 279 188 303 8 237 225 277 320 342 4 185 248 322 336 310 332 327 310 289 291 287 273 275 289 293 293 291 293 300 308